{"data":{"norad_id":58809,"epoch":"2026-05-24T23:41:42.052128Z","epoch_age_seconds":72233,"freshness":"FRESH","line1":"1 58809U 24012Y   26144.98729227 -.00001021  00000+0 -27593-4 0  9997","line2":"2 58809  43.0041  94.4414 0001801 255.3744 104.6908 15.27575578132905","mean_motion":15.27575578,"eccentricity":0.0001801,"inclination_deg":43.0041,"raan_deg":94.4414,"arg_perigee_deg":255.3744,"mean_anomaly_deg":104.6908,"bstar":-2.7593e-5,"rev_number":13290,"period_min":94.267021595445,"perigee_km":481.82663512978,"apogee_km":484.29803913102,"semimajor_km":6861.1993371304,"source":"CELESTRAK","updated_at":"2026-05-25T13:38:18.752451Z"}}